Location: Newark
(0.5300°S, 127.4800°E)
Time: 14:47:31
(UTC+00:00)

Vanguard 3 - Pass Details

Date: 20 September 2019
Orbit: 508 x 3262 km, 33.3° (Epoch: 20 October)

Event Time Altitude Azimuth Distance (km) Brightness Sun altitude
Rises 00:33:31 0° 293° (WNW) 6,065 11.2 47.4°
Reaches altitude 10° 00:39:19 10° 310° (NW) 5,497 11.2 48.8°
Maximum altitude 00:50:21 19° 349° (N) 5,280 11.4 51.6°
Drops below altitude 10° 01:02:45 10° 28° (NNE) 6,178 12.0 54.7°
Sets 01:10:07 0° 45° (NE) 7,036 12.3 56.5°
